Location: Goll?ig?dem
(16.6773°N, 80.7332°E)
Time: 16:39:14
(UTC+00:00)

ASC 2 Rocket - Pass Details

Date: 19 May 2025
Orbit: 555 x 2330 km, 24.0° (Epoch: 12 June)

Event Time Altitude Azimuth Distance (km) Brightness Sun altitude
Rises 13:44:39 0° 229° (SW) 2,767 6.8 -10.2°
Reaches altitude 10° 13:46:50 10° 220° (SW) 1,950 5.8 -10.7°
Maximum altitude 13:50:56 37° 152° (SSE) 1,096 3.9 -11.6°
Enters shadow 13:55:32 13° 89° (E) 2,303 5.4 -12.6°
